Regional Weather Roundup
Issued by NWS

Home | Current Version | Previous Version | Text Only | Print | Product List | Glossary Off
Versions: 1 2 3 4 5 6 7 8 9 10 11 12 13 14 15 16 17 18 19 20 21 22 23 24 25 26 27 28 29 30 31 32 33 34 35 36 37 38 39 40 41 42 43 44 45 46 47 48 49 50

000
ASUS43 KMPX 241501
RWRMN
WEATHER ROUNDUP FOR MINNESOTA
NATIONAL WEATHER SERVICE TWIN CITIES/CHANHASSEN MN
900 AM CST SAT JAN 24 2015


NOTE: "FAIR" INDICATES FEW OR NO CLOUDS BELOW 12,000 FEET WITH NO
SIGNIFICANT WEATHER AND/OR OBSTRUCTIONS TO VISIBILITY. N/A MEANS
CURRENT SKY AND/OR WEATHER CONDITIONS ARE NOT AVAILABLE.

MNZ060>063-068>070-241600-
   Twin Cities Metro

CITY           SKY/WX    TMP DP  RH WIND       PRES   REMARKS
TWIN CITIES    MOSUNNY   30  28  92 SW3       29.71F
ST PAUL        PTSUNNY   29  28  96 CALM      29.73S
CRYSTAL        SUNNY     32  28  85 SW5       29.69F WCI  27
BLAINE         SUNNY     32  32 100 SW3       29.70S
LAKEVILLE      SUNNY     28  28 100 W6        29.71S WCI  22
EDEN PRAIRIE   MOSUNNY   29  27  92 SW7       29.70F FOG     WCI  22
SOUTH ST PAUL  SUNNY     32  30  92 W5        29.71S WCI  27
LAKE ELMO      FOG       28  28 100 CALM      29.71F VSB 1/4
$$
MNZ001>005-007-008-013>017-022>024-027-028-241600-
   Northwest Minnesota

CITY           SKY/WX    TMP DP  RH WIND       PRES   REMARKS
BEMIDJI        CLOUDY    28  27  99 W3        29.63F FOG
HALLOCK        CLOUDY    28  27  93 N5        29.66R WCI  23
ROSEAU         CLOUDY    30  27  86 N7        29.65S WCI  23
WARROAD        CLOUDY    30  27  86 NE6       29.66R WCI  24
THIEF RVR FALL CLOUDY    27  25  93 CALM      29.63F
CROOKSTON      CLOUDY    25  25 100 CALM      29.64F
FOSSTON        FOG       25  25 100 SE3       29.63F VSB<1/4
DETROIT LAKES  CLEAR     28  28 100 W3        29.64F FOG
MOORHEAD       CLEAR     30  30 100 SW3       29.66F
PARK RAPIDS    FOG       26  24  92 CALM      29.63F VSB 1/4
MAHNOMEN       CLOUDY    24  23  97 S5        29.63F WCI  18
$$
MNZ006-009>011-018-025>026-241600-
   North Central Minnesota

CITY           SKY/WX    TMP DP  RH WIND       PRES   REMARKS
BAUDETTE       CLOUDY    30  25  81 N8        29.64R WCI  22
FLAG ISLAND    CLOUDY    25  21  86 NE16      29.66S WCI  12
INTL FALLS     CLOUDY    31  25  78 N8        29.62S WCI  23
WASKISH        CLOUDY    30  28  93 CALM      29.64S
BIG FORK       CLOUDY    32  28  86 CALM      29.62F
LONGVILLE      CLOUDY    28  28 100 CALM      29.64F FOG
GRAND RAPIDS   CLOUDY    30  28  93 W5        29.62F WCI  25
CRANE LAKE     CLOUDY    30  28  93 NW6       29.64R WCI  24
ORR            CLOUDY    30  28  93 CALM      29.58F
COOK           LGT SNOW  30  30 100 W5        29.61S WCI  25
WALKER         CLOUDY    27  26  96 W3        29.64S
$$
MNZ012-019>021-037-241600-
   Northeast Minnesota

CITY           SKY/WX    TMP DP  RH WIND       PRES   REMARKS
DULUTH         CLOUDY    33  29  85 W9        29.61S WCI  25
ELY            CLOUDY    30  28  93 NW3       29.59S
HIBBING        CLOUDY    33  28  81 NW7       29.60F WCI  27
EVELETH        CLOUDY    32  30  93 SW3       29.61F
DULUTH HARBOR  CLOUDY    36  30  80 S8        29.64F
TWO HARBORS    CLOUDY    37  30  75 W5        29.59S
SILVER BAY     CLOUDY    36  28  75 CALM      29.58F
GRAND MARAIS     N/A     33  23  66 VRB7      29.62R WCI  27
G MARAIS ARPRT MOSUNNY   27  18  69 NW8       29.57S WCI  18
$$
MNZ029>031-032-039>041-046>048-054>057-064-241600-
   West Central Minnesota

CITY           SKY/WX    TMP DP  RH WIND       PRES   REMARKS
FERGUS FALLS   CLEAR     25  25 100 W5        29.70S WCI  19
WHEATON        CLEAR     30  27  86 W7        29.70F WCI  23
MORRIS         CLEAR     30  28  93 W6        29.67F WCI  24
ALEXANDRIA     CLEAR     30  28  92 W5        29.66F WCI  25
ELBOW LAKE     FAIR      25  24  99 S6        29.67S WCI  18
WADENA         CLEAR     23  23 100 CALM      29.64F FOG
GLENWOOD       CLEAR     28  28 100 W7        29.67F WCI  21
APPLETON       CLEAR     32  30  93 SW6       29.69F WCI  26
BENSON         CLOUDY    30  27  86 W5        29.68F WCI  25
ORTONVILLE     CLEAR     32  27  80 SW5       29.69F WCI  27
MADISON        CLEAR     37  32  81 W10       29.70F
WILLMAR        FAIR      30  28  93 W6        29.70F WCI  24
$$
MNZ033>034-036-042>043-049>051-058-059-241600-
   Central Minnesota

CITY           SKY/WX    TMP DP  RH WIND       PRES   REMARKS
ST CLOUD       CLEAR     28  27  96 SW5       29.67F FOG     WCI  23
SAUK CENTRE    FAIR      26  25  99 CALM      29.67F
PAYNESVILLE    CLEAR     23  23 100 CALM      29.69F
AITKIN         CLOUDY    32  27  80 CALM      29.63F
PINE RIVER     FOG       27  27 100 CALM      29.69S VSB 1/4
BRAINERD       FOG       28  27  96 W7        29.66S VSB 1/4 WCI  21
STAPLES        FOG       23  23 100 CALM      29.65F VSB 1
LONG PRAIRIE   FAIR      25  23  93 CALM      29.66F FOG
LITTLE FALLS     N/A     27  25  93 CALM      29.67F FOG
LITCHFIELD     CLEAR     28  28 100 CALM      29.69F
BUFFALO        SUNNY     29  28  95 CALM      29.71F FOG
MAPLE LAKE     SUNNY     31  30  98 SW5       29.70F WCI  26
$$
MNZ037-044-045-052-053-241600-
   East Central Minnesota

CITY           SKY/WX    TMP DP  RH WIND       PRES   REMARKS
PRINCETON      MOSUNNY   30  30 100 CALM      29.68F
MORA           SUNNY     28  27  93 SW3       29.69F
CAMBRIDGE      SUNNY     32  25  74 CALM      29.67F
RUSH CITY      CLOUDY    30  29  94 CALM      29.68F
MOOSE LAKE     CLOUDY    32  30  93 W3        29.62F
HINCKLEY       CLOUDY    32  32 100 SW5       29.66F WCI  27
CLOQUET        CLOUDY    32  28  86 W6        29.62S WCI  26
MCGREGOR       CLOUDY    32  30  93 CALM      29.64F
$$
MNZ071>073-080-081-089-090-097-098-241600-
   Southwest Minnesota

CITY           SKY/WX    TMP DP  RH WIND       PRES   REMARKS
MONTEVIDEO     CLEAR     34  32  93 W5        29.71F WCI  30
GRANITE FALLS  CLEAR     31  29  90 SW7       29.72F WCI  25
CANBY          CLEAR     34  30  83 W10       29.72F WCI  26
MARSHALL       CLEAR     32  27  80 W6        29.73F WCI  26
REDWOOD FALLS  SUNNY     34  29  82 W10       29.71F WCI  26
OLIVIA         CLEAR     30  28  93 SW5       29.70F WCI  25
PIPESTONE      CLEAR     30  28  93 W9        29.73F WCI  22
WINDOM         SUNNY     30  28  93 W6        29.73F WCI  24
WORTHINGTON    SUNNY     28  25  86 W10       29.75F WCI  19
JACKSON        SUNNY     32  28  86 W10       29.74F WCI  24
TRACY          CLEAR     33  30  89 SW9       29.72F WCI  25
SLAYTON        CLEAR     31  28  88 CALM      29.73F
$$
MNZ065>067-074>077-082>085-091>093-241600-
   South Central Minnesota

CITY           SKY/WX    TMP DP  RH WIND       PRES   REMARKS
MANKATO        SUNNY     30  27  86 SW6       29.73F WCI  24
NEW ULM        SUNNY     27  27 100 SW5       29.73F WCI  21
ST JAMES       SUNNY     30  28  93 SW8       29.75F WCI  23
FAIRMONT       SUNNY     30  25  80 W9        29.74F WCI  22
GLENCOE        SUNNY     28  28 100 SW3       29.70F
FARIBAULT      CLOUDY    25  25 100 SW5       29.73S FOG     WCI  19
OWATONNA       SUNNY     25  25 100 S7        29.72F FOG     WCI  17
WASECA         SUNNY     27  23  86 SW5       29.75S FOG     WCI  21
ALBERT LEA     MOSUNNY   28  28 100 W5        29.73S WCI  23
$$
MNZ078>079-086>088-094>096-241600-
   Southeast Minnesota

CITY           SKY/WX    TMP DP  RH WIND       PRES   REMARKS
ROCHESTER      SUNNY     26  25  96 W8        29.71F FOG     WCI  18
RED WING       MOSUNNY   28  27  93 CALM      29.71S FOG
STANTON        SUNNY     28  26  93 S6        29.71S WCI  22
DODGE CENTER   SUNNY     25  25 100 W9        29.71S FOG     WCI  15
WINONA         CLOUDY    34  32  93 NW6       29.72F WCI  29
AUSTIN         MOSUNNY   27  27 100 W5        29.73S WCI  21
PRESTON        SUNNY     27  26  94 W7        29.72S WCI  20
$$
ABBREVIATIONS USED IN REMARKS
   TC - TEMPERATURES IN CELSIUS
  WCI - WIND CHILL INDEX
   HX - HEAT INDEX
  VSB - VISIBILITY
$$


USA.gov is the U.S. government's official web portal to all federal, state and local government web resources and services.